• In Moldova, Republic
  • List of Countries
  • For 7 days
  • Water Temperature
  • Satellite Maps
  • Weather Map
  • Weather Widgets
  • user-avatar
    Login

    Hourly Weather Eisenstadt

    Today, 21 August, Monday

    Time Temperature Precipitation Wind Pressure Humidity
    00:00 +13°C° 0 mm 3 mps 727 mmHg 69%
    01:00 +12°C° 0 mm 2 mps 727 mmHg 74%
    02:00 +12°C° 0 mm 2 mps 727 mmHg 74%
    03:00 +12°C° 0 mm 2 mps 727 mmHg 74%
    04:00 +12°C° 0 mm 2 mps 726 mmHg 74%
    05:00 +12°C° 0 mm 3 mps 727 mmHg 69%
    06:00 +13°C° 0 mm 3 mps 727 mmHg 65%
    07:00 +14°C° 0 mm 3 mps 727 mmHg 60%
    08:00 +17°C° 0 mm 4 mps 727 mmHg 54%
    09:00 +17°C° 0 mm 5 mps 727 mmHg 48%
    10:00 +20°C° 0 mm 5 mps 727 mmHg 42%
    11:00 +21°C° 0 mm 5 mps 727 mmHg 40%
    12:00 +21°C° 0 mm 5 mps 726 mmHg 39%
    13:00 +22°C° 0 mm 5 mps 726 mmHg 37%
    14:00 +22°C° 0 mm 5 mps 726 mmHg 38%
    15:00 +22°C° 0 mm 5 mps 726 mmHg 38%
    16:00 +22°C° 0 mm 5 mps 726 mmHg 39%
    17:00 +20°C° 0 mm 4 mps 726 mmHg 45%
    18:00 +18°C° 0 mm 3 mps 726 mmHg 51%
    19:00 +17°C° 0 mm 3 mps 726 mmHg 57%
    20:00 +16°C° 0 mm 3 mps 726 mmHg 60%
    21:00 +15°C° 0 mm 2 mps 726 mmHg 64%
    22:00 +14°C° 0 mm 2 mps 726 mmHg 67%
    23:00 +13°C° 0 mm 2 mps 726 mmHg 69%

    Tomorrow, 22 August, Tuesday

    Time Temperature Precipitation Wind Pressure Humidity
    00:00 +13°C° 0 mm 2 mps 726 mmHg 71%
    01:00 +12°C° 0 mm 2 mps 726 mmHg 73%
    02:00 +12°C° 0 mm 2 mps 726 mmHg 74%
    03:00 +12°C° 0 mm 2 mps 726 mmHg 75%
    04:00 +12°C° 0 mm 2 mps 726 mmHg 76%
    05:00 +13°C° 0 mm 2 mps 726 mmHg 72%
    06:00 +14°C° 0 mm 2 mps 726 mmHg 67%
    07:00 +15°C° 0 mm 2 mps 727 mmHg 63%
    08:00 +18°C° 0 mm 2 mps 727 mmHg 55%
    09:00 +20°C° 0 mm 2 mps 727 mmHg 48%
    10:00 +23°C° 0 mm 2 mps 727 mmHg 41%
    11:00 +24°C° 0 mm 2 mps 726 mmHg 38%
    12:00 +25°C° 0 mm 2 mps 726 mmHg 35%
    13:00 +26°C° 0 mm 2 mps 725 mmHg 32%
    14:00 +25°C° 0 mm 2 mps 725 mmHg 31%
    15:00 +25°C° 0 mm 2 mps 725 mmHg 31%
    16:00 +25°C° 0 mm 2 mps 724 mmHg 31%
    17:00 +23°C° 0 mm 2 mps 724 mmHg 38%
    18:00 +20°C° 0 mm 2 mps 724 mmHg 45%
    19:00 +18°C° 0 mm 2 mps 724 mmHg 52%
    20:00 +17°C° 0 mm 2 mps 724 mmHg 55%
    21:00 +16°C° 0 mm 2 mps 724 mmHg 58%
    22:00 +15°C° 0 mm 2 mps 724 mmHg 61%
    23:00 +15°C° 0 mm 2 mps 724 mmHg 64%

    Day after tomorrow, 23 August, Wednesday

    Time Temperature Precipitation Wind Pressure Humidity
    00:00 +14°C° 0 mm 2 mps 724 mmHg 67%
    01:00 +14°C° 0 mm 2 mps 724 mmHg 70%
    02:00 +13°C° 0 mm 2 mps 724 mmHg 73%
    03:00 +13°C° 0 mm 2 mps 724 mmHg 76%
    04:00 +12°C° 0 mm 2 mps 724 mmHg 78%
    05:00 +13°C° 0 mm 2 mps 725 mmHg 75%
    06:00 +14°C° 0 mm 1 mps 725 mmHg 71%
    07:00 +15°C° 0 mm 1 mps 725 mmHg 68%
    08:00 +18°C° 0 mm 1 mps 726 mmHg 61%
    09:00 +20°C° 0 mm 1 mps 726 mmHg 54%
    10:00 +22°C° 0 mm 1 mps 726 mmHg 48%
    11:00 +23°C° 0 mm 1 mps 726 mmHg 45%
    12:00 +24°C° 0 mm 1 mps 725 mmHg 43%
    13:00 +25°C° 0 mm 1 mps 725 mmHg 41%
    14:00 +25°C° 0 mm 1 mps 725 mmHg 40%
    15:00 +25°C° 0 mm 1 mps 725 mmHg 40%
    16:00 +25°C° 0 mm 1 mps 724 mmHg 39%
    17:00 +23°C° 0 mm 1 mps 724 mmHg 45%
    18:00 +22°C° 0 mm 1 mps 724 mmHg 51%
    19:00 +20°C° 0 mm 1 mps 724 mmHg 57%
    20:00 +19°C° 0 mm 1 mps 724 mmHg 58%
    21:00 +18°C° 0 mm 1 mps 724 mmHg 59%
    22:00 +16°C° 0 mm 1 mps 725 mmHg 60%
    23:00 +15°C° 0 mm 1 mps 725 mmHg 61%

    24 August, Thursday

    Time Temperature Precipitation Wind Pressure Humidity
    00:00 +15°C° 0 mm 1 mps 725 mmHg 61%
    01:00 +14°C° 0 mm 1 mps 724 mmHg 61%
    02:00 +14°C° 0 mm 1 mps 724 mmHg 61%
    03:00 +14°C° 0 mm 1 mps 724 mmHg 62%
    04:00 +13°C° 0 mm 0 mps 724 mmHg 62%
    05:00 +14°C° 0 mm 0 mps 725 mmHg 59%
    06:00 +15°C° 0 mm 0 mps 725 mmHg 57%
    07:00 +17°C° 0 mm 0 mps 725 mmHg 54%
    08:00 +21°C° 0 mm 1 mps 725 mmHg 49%
    09:00 +23°C° 0 mm 1 mps 726 mmHg 45%
    10:00 +26°C° 0 mm 1 mps 726 mmHg 40%
    11:00 +27°C° 0 mm 2 mps 726 mmHg 38%
    12:00 +29°C° 0 mm 2 mps 725 mmHg 36%
    13:00 +30°C° 0 mm 2 mps 725 mmHg 34%
    14:00 +30°C° 0 mm 2 mps 725 mmHg 35%
    15:00 +30°C° 0 mm 2 mps 725 mmHg 35%
    16:00 +30°C° 0 mm 2 mps 724 mmHg 35%
    17:00 +28°C° 0 mm 2 mps 724 mmHg 41%
    18:00 +26°C° 0 mm 2 mps 724 mmHg 47%
    19:00 +24°C° 0 mm 1 mps 724 mmHg 53%
    20:00 +23°C° 0.2 mm 1 mps 724 mmHg 56%
    21:00 +22°C° 0.2 mm 1 mps 724 mmHg 59%
    22:00 +22°C° 0.2 mm 1 mps 724 mmHg 62%
    23:00 +21°C° 0.2 mm 1 mps 724 mmHg 65%

    25 August, Friday

    Time Temperature Precipitation Wind Pressure Humidity
    00:00 +21°C° 0.2 mm 1 mps 724 mmHg 67%
    01:00 +20°C° 0.2 mm 1 mps 724 mmHg 70%
    02:00 +20°C° 0 mm 1 mps 724 mmHg 71%
    03:00 +19°C° 0 mm 1 mps 724 mmHg 72%
    04:00 +19°C° 0 mm 1 mps 724 mmHg 73%
    05:00 +20°C° 0 mm 1 mps 724 mmHg 71%
    06:00 +21°C° 0 mm 1 mps 724 mmHg 68%
    07:00 +22°C° 0 mm 1 mps 725 mmHg 65%
    08:00 +24°C° 0 mm 1 mps 725 mmHg 58%
    09:00 +27°C° 0 mm 1 mps 725 mmHg 51%
    10:00 +29°C° 0 mm 2 mps 725 mmHg 43%
    11:00 +30°C° 0 mm 2 mps 725 mmHg 40%
    12:00 +31°C° 0 mm 2 mps 725 mmHg 36%
    13:00 +34°C° 0 mm 3 mps 725 mmHg 32%
    14:00 +34°C° 0 mm 3 mps 724 mmHg 32%
    15:00 +34°C° 0 mm 3 mps 724 mmHg 33%
    16:00 +34°C° 0 mm 3 mps 724 mmHg 33%
    17:00 +30°C° 0 mm 2 mps 723 mmHg 39%
    18:00 +28°C° 0 mm 2 mps 723 mmHg 45%
    19:00 +26°C° 0 mm 2 mps 723 mmHg 52%
    20:00 +25°C° 0 mm 2 mps 723 mmHg 54%
    21:00 +24°C° 0 mm 2 mps 723 mmHg 57%
    22:00 +23°C° 0 mm 2 mps 724 mmHg 59%
    23:00 +23°C° 0 mm 2 mps 724 mmHg 60%

    26 August, Saturday

    Time Temperature Precipitation Wind Pressure Humidity
    00:00 +21°C° 0 mm 2 mps 724 mmHg 61%
    01:00 +21°C° 0 mm 1 mps 724 mmHg 63%
    02:00 +21°C° 0 mm 1 mps 724 mmHg 64%
    03:00 +20°C° 0 mm 1 mps 724 mmHg 66%
    04:00 +20°C° 0 mm 1 mps 724 mmHg 67%
    05:00 +21°C° 0 mm 1 mps 724 mmHg 65%
    06:00 +22°C° 0 mm 1 mps 724 mmHg 62%
    07:00 +23°C° 0 mm 1 mps 724 mmHg 60%
    08:00 +25°C° 0 mm 1 mps 724 mmHg 53%
    09:00 +28°C° 0 mm 2 mps 724 mmHg 47%
    10:00 +30°C° 0 mm 2 mps 725 mmHg 40%
    11:00 +31°C° 0 mm 2 mps 724 mmHg 37%
    12:00 +33°C° 0 mm 3 mps 724 mmHg 34%
    13:00 +35°C° 0 mm 3 mps 724 mmHg 31%
    14:00 +35°C° 0 mm 3 mps 724 mmHg 31%
    15:00 +35°C° 0 mm 3 mps 723 mmHg 31%
    16:00 +35°C° 0 mm 3 mps 723 mmHg 32%
    17:00 +31°C° 0 mm 2 mps 723 mmHg 38%
    18:00 +29°C° 0 mm 2 mps 723 mmHg 43%
    19:00 +27°C° 0 mm 1 mps 723 mmHg 49%
    20:00 +26°C° 0 mm 1 mps 723 mmHg 51%
    21:00 +25°C° 0 mm 2 mps 723 mmHg 54%
    22:00 +24°C° 0 mm 2 mps 723 mmHg 56%
    23:00 +23°C° 0 mm 2 mps 722 mmHg 57%
    Show more